[[{"header":{"parameterUnit":"m.s-1","parameterCategory":1,"la1":30.2991,"la2":30.254,"lo1":-89.0895,"lo2":-89.0444,"dy":0.0017,"dx":0.0017,"nx":28,"ny":28,"refTime":"2024-08-03T21:00:00:Z","depth":0,"parameterNumber":2,"parameterNumberName":"U-component_of_WINDS"},"data":[0,0,0,0,0,0,0,0,0,0,0,0,0,0,0,0,0,0,0,0,0,0,0,0,0,0,0,0,0,0,0,0,0,0,0,0,0,0,0,0,0,0,0,0,0,0,0,0,0,0,0,0,0,0,0,0,0,0,-0.3322,-0.3322,0,-0.3257,-0.3256,-0.3255,-0.3174,-0.3172,-0.3171,-0.317,-0.3103,-0.3102,-0.3102,0,0,0,0,0,0,0,0,0,0,0,0,0,-0.3377,-0.3377,-0.3322,-0.3322,-0.3321,-0.3257,-0.3256,-0.3255,-0.3174,-0.3172,-0.3171,-0.3169,-0.3103,-0.3103,-0.3102,0,0,0,0,0,0,0,0,0,0,0,0,0,-0.3337,-0.3377,-0.3323,-0.3273,-0.3267,-0.3257,-0.3256,-0.3255,-0.3174,-0.3172,-0.317,-0.3168,-0.3103,-0.3103,-0.3102,-0.3135,0,0,-0.3099,-0.3099,0,0,0,0,0,0,0,0,-0.3339,-0.3335,-0.3281,-0.3276,-0.327,-0.3221,-0.3251,-0.3215,-0.3175,-0.321,-0.317,-0.3167,-0.3144,-0.314,-0.3132,-0.3132,-0.3129,-0.3099,-0.3099,-0.3098,-0.3098,0,0,0,0,0,0,0,-0.3342,-0.3337,-0.3296,-0.328,-0.3274,-0.3253,-0.3245,-0.3243,-0.3189,-0.3206,-0.32,-0.3194,-0.3141,-0.3133,-0.3129,-0.3128,-0.3099,-0.3098,-0.3098,-0.3097,-0.3152,-0.3154,0,0,0,0,0,0,-0.3352,-0.334,-0.3298,-0.3294,-0.3301,-0.3254,-0.3245,-0.3239,-0.3188,-0.3179,-0.3195,-0.319,-0.3135,-0.3131,-0.3127,-0.3163,-0.3098,-0.3097,-0.3097,-0.315,-0.3153,-0.3155,0,0,0,0,0,0,-0.3354,-0.335,-0.3301,-0.3316,-0.3308,-0.3255,-0.3249,-0.3239,-0.3231,-0.318,-0.317,-0.3197,-0.3133,-0.3128,-0.3134,-0.3159,-0.3097,-0.3096,-0.3148,-0.3151,-0.3154,-0.3235,0,0,0,0,0,0,-0.3356,-0.3351,-0.3363,-0.3316,-0.3307,-0.331,-0.325,-0.3239,-0.3229,-0.3222,-0.3179,-0.317,-0.3131,-0.3135,-0.3133,-0.3157,-0.3096,-0.3146,-0.3149,-0.3153,-0.323,-0.3241,-0.325,0,0,0,0,0,-0.3358,-0.3389,-0.3364,-0.3359,-0.3322,-0.3311,-0.3306,-0.3261,-0.3232,-0.3244,-0.3211,-0.3171,-0.3157,-0.3137,-0.3133,-0.3157,-0.3144,-0.3148,-0.3153,-0.3226,-0.3239,-0.3249,0,0,0,0,0,0,-0.344,-0.3382,-0.3354,-0.337,-0.3346,-0.3297,-0.3311,-0.3276,-0.326,-0.3254,-0.3198,-0.3189,-0.3202,-0.318,-0.3158,-0.3187,-0.3144,-0.3148,-0.3201,-0.3213,-0.3222,-0.3228,-0.3095,0,0,0,0,0,-0.346,-0.3456,-0.3405,-0.3425,-0.3414,-0.3365,-0.3359,-0.3326,-0.3299,-0.3288,-0.3256,-0.3231,-0.3221,-0.3215,-0.3203,-0.3226,-0.3215,-0.3241,-0.3251,-0.3259,-0.3263,-0.3274,-0.3284,-0.317,-0.317,-0.3169,0,0,-0.3502,-0.3469,-0.347,-0.3441,-0.3418,-0.3415,-0.3357,-0.3357,-0.3354,-0.3288,-0.3292,-0.3267,-0.3236,-0.325,-0.3255,-0.3232,-0.3292,-0.3264,-0.3271,-0.3271,-0.3279,-0.329,-0.33,-0.3173,-0.3172,-0.3172,0,0,-0.3576,-0.3551,-0.3564,-0.3543,-0.3509,-0.3476,-0.3479,-0.3435,-0.3416,-0.3419,-0.3369,-0.3365,-0.3348,-0.3328,-0.3315,-0.3381,-0.3344,-0.3378,-0.343,-0.344,-0.3449,-0.3457,-0.3481,-0.349,-0.3382,-0.3382,-0.3383,0,-0.3632,-0.3626,-0.3576,-0.3578,-0.3567,-0.3506,-0.3519,-0.35,-0.3465,-0.3458,-0.3433,-0.341,-0.3385,-0.3394,-0.341,-0.3401,-0.3403,-0.3383,-0.3452,-0.3459,-0.3466,-0.3488,-0.3497,-0.3387,-0.3386,-0.3386,-0.3386,0,-0.3696,-0.3693,-0.3707,-0.3674,-0.3664,-0.3672,-0.3623,-0.3618,-0.3586,-0.3556,-0.3558,-0.3526,-0.3505,-0.3505,-0.3473,-0.3509,-0.3496,-0.3462,-0.3419,-0.3482,-0.3502,-0.351,-0.3393,-0.3392,-0.339,-0.3389,0,0,-0.3822,-0.376,-0.3767,-0.375,-0.3708,-0.3705,-0.3709,-0.3689,-0.3687,-0.3664,-0.3666,-0.3653,-0.3621,-0.3607,-0.3573,-0.3582,-0.3636,-0.3547,-0.3545,-0.3565,-0.3673,-0.37,-0.3711,-0.361,-0.3612,-0.3613,-0.3676,0,-0.389,-0.3894,-0.3849,-0.3866,-0.3862,-0.3804,-0.3808,-0.3782,-0.3753,-0.3746,-0.3713,-0.3705,-0.3664,-0.3655,-0.3661,-0.3628,-0.3657,-0.3623,-0.3613,-0.3613,-0.3624,-0.3721,-0.3749,-0.381,-0.3684,-0.3685,-0.3686,0,-0.3969,-0.395,-0.3967,-0.3923,-0.392,-0.3925,-0.3902,-0.3895,-0.3865,-0.3843,-0.3827,-0.3787,-0.3788,-0.3746,-0.3747,-0.3725,-0.3718,-0.3701,-0.3702,-0.37,-0.3655,-0.3723,-0.3829,-0.3839,-0.3697,-0.3696,-0.3696,0,-0.406,-0.4039,-0.4046,-0.4034,-0.3983,-0.3987,-0.3966,-0.3934,-0.3925,-0.3905,-0.3898,-0.3879,-0.3869,-0.3854,-0.381,-0.3783,-0.3817,-0.377,-0.3799,-0.38,-0.381,-0.381,-0.3917,-0.3804,-0.3804,-0.3803,-0.3803,0,-0.4141,-0.4154,-0.4086,-0.4091,-0.4103,-0.405,-0.4064,-0.4037,-0.4008,-0.4007,-0.3954,-0.3954,-0.3895,-0.3888,-0.3853,-0.3859,-0.3855,-0.3837,-0.3828,-0.3843,-0.3845,-0.3838,-0.3833,-0.3806,-0.3805,-0.3805,-0.3804,0,-0.4245,-0.42,-0.4204,-0.4155,-0.4143,-0.4155,-0.4113,-0.4115,-0.4082,-0.4081,-0.4077,-0.4026,-0.4015,-0.3969,-0.3946,-0.3923,-0.3941,-0.3922,-0.3952,-0.3946,-0.3977,-0.3976,-0.4085,-0.4097,-0.3975,-0.3976,-0.3977,0,-0.43,-0.4309,-0.426,-0.4255,-0.4236,-0.4229,-0.4219,-0.4166,-0.4158,-0.4123,-0.413,-0.4114,-0.4099,-0.4084,-0.4045,-0.4027,-0.4008,-0.4048,-0.4005,-0.402,-0.401,-0.401,-0.4011,-0.4058,-0.4059,-0.406,-0.4061,0,-0.4403,-0.438,-0.4367,-0.4347,-0.4336,-0.4318,-0.4296,-0.4295,-0.4236,-0.423,-0.4217,-0.4206,-0.4182,-0.4168,-0.4143,-0.4121,-0.4082,-0.4075,-0.4081,-0.4096,-0.4113,-0.4105,-0.3978,-0.4073,-0.4072,-0.4071,-0.407,-0.407,-0.4485,-0.4489,-0.4456,-0.4443,-0.4421,-0.4402,-0.4402,-0.4368,-0.4357,-0.4334,-0.4304,-0.4295,-0.4264,-0.4227,-0.4208,-0.4201,-0.4179,-0.4187,-0.4189,-0.4192,-0.42,-0.4113,-0.4196,-0.4195,-0.4195,-0.4195,-0.4194,0,-0.4585,-0.456,-0.4549,-0.452,-0.451,-0.4473,-0.4447,-0.4441,-0.4435,-0.4408,-0.4394,-0.438,-0.4365,-0.4324,-0.4305,-0.4307,-0.4289,-0.4304,-0.4304,-0.43,-0.422,-0.4217,-0.4319,-0.4319,-0.4319,-0.4319,-0.4319,-0.4319,-0.4636,-0.4642,-0.4615,-0.4609,-0.4584,-0.4576,-0.4564,-0.4546,-0.4524,-0.4511,-0.4498,-0.4471,-0.4439,-0.4417,-0.4402,-0.439,-0.4386,-0.4408,-0.439,-0.4317,-0.4305,-0.4294,-0.4291,-0.4407,-0.4407,-0.447,-0.4471,-0.4472]},{"header":{"parameterUnit":"m.s-1","parameterCategory":1,"la1":30.2991,"la2":30.254,"lo1":-89.0895,"lo2":-89.0444,"dy":0.0017,"dx":0.0017,"nx":28,"ny":28,"refTime":"2024-08-03T21:00:00:Z","depth":0,"parameterNumber":3,"parameterNumberName":"V-component_of_WINDS"},"data":[0,0,0,0,0,0,0,0,0,0,0,0,0,0,0,0,0,0,0,0,0,0,0,0,0,0,0,0,0,0,0,0,0,0,0,0,0,0,0,0,0,0,0,0,0,0,0,0,0,0,0,0,0,0,0,0,0,0,0.7469,0.7468,0,0.7402,0.7401,0.7401,0.7381,0.7382,0.7382,0.7382,0.7306,0.7303,0.7301,0,0,0,0,0,0,0,0,0,0,0,0,0,0.7571,0.7569,0.7469,0.7468,0.7467,0.7402,0.7401,0.74,0.7381,0.7382,0.7382,0.7383,0.7307,0.7304,0.7301,0,0,0,0,0,0,0,0,0,0,0,0,0,0.7518,0.7569,0.7469,0.745,0.7448,0.7403,0.7401,0.74,0.7381,0.7382,0.7382,0.7383,0.7307,0.7304,0.73,0.7267,0,0,0.729,0.7288,0,0,0,0,0,0,0,0,0.7521,0.7514,0.7454,0.7451,0.7448,0.7401,0.7409,0.7355,0.7381,0.7406,0.7382,0.7383,0.7336,0.733,0.7316,0.7263,0.726,0.7289,0.7287,0.7285,0.7284,0,0,0,0,0,0,0,0.7524,0.7516,0.7442,0.7453,0.745,0.7442,0.7435,0.7399,0.7368,0.7404,0.7402,0.7395,0.7335,0.732,0.7314,0.7259,0.7289,0.7286,0.7284,0.7282,0.7173,0.7172,0,0,0,0,0,0,0.7532,0.752,0.7444,0.744,0.7487,0.744,0.7432,0.7415,0.7369,0.7363,0.7395,0.7395,0.7326,0.7319,0.7312,0.7268,0.7286,0.7282,0.728,0.7173,0.7173,0.7172,0,0,0,0,0,0,0.7535,0.7526,0.7447,0.748,0.7469,0.7437,0.7419,0.7414,0.7399,0.7362,0.7356,0.7386,0.7326,0.7317,0.7278,0.7266,0.7281,0.7277,0.7174,0.7173,0.7172,0.7182,0,0,0,0,0,0,0.7538,0.7527,0.7516,0.748,0.7467,0.7418,0.7418,0.7412,0.7394,0.7393,0.7352,0.7346,0.7326,0.7284,0.7275,0.7261,0.7274,0.7175,0.7174,0.7172,0.7183,0.7182,0.7181,0,0,0,0,0,0.7542,0.752,0.7516,0.7507,0.7454,0.7417,0.741,0.739,0.7393,0.738,0.7356,0.7347,0.7269,0.728,0.727,0.7254,0.7176,0.7174,0.7173,0.7183,0.7182,0.7181,0,0,0,0,0,0,0.7553,0.7515,0.751,0.7476,0.745,0.7414,0.7397,0.7389,0.7359,0.7359,0.7333,0.7324,0.7287,0.7267,0.728,0.7218,0.7222,0.7218,0.7233,0.7232,0.723,0.7236,0.7271,0,0,0,0,0,0.7553,0.7529,0.7495,0.7469,0.7457,0.7429,0.7413,0.74,0.737,0.7359,0.7332,0.7302,0.727,0.725,0.7219,0.718,0.7169,0.7164,0.7163,0.7162,0.7159,0.7135,0.7131,0.7166,0.7166,0.7166,0,0,0.755,0.7526,0.7512,0.7471,0.7449,0.7422,0.742,0.7392,0.7371,0.7353,0.7316,0.7295,0.7259,0.7221,0.7202,0.7202,0.7147,0.716,0.7159,0.7156,0.7133,0.7129,0.7126,0.7165,0.7165,0.7165,0,0,0.7531,0.7511,0.7487,0.7466,0.7434,0.7416,0.741,0.7374,0.7361,0.7323,0.7309,0.7282,0.7229,0.7204,0.7184,0.7154,0.7144,0.7145,0.7138,0.7115,0.7112,0.711,0.7098,0.7094,0.7142,0.7142,0.7142,0,0.7531,0.7493,0.7475,0.7448,0.7429,0.7414,0.7387,0.7366,0.7325,0.7311,0.7313,0.7245,0.722,0.7174,0.7167,0.7152,0.7142,0.7149,0.7115,0.7112,0.7109,0.7097,0.7093,0.7142,0.7142,0.7142,0.7142,0,0.7493,0.7467,0.745,0.7414,0.7393,0.7366,0.7341,0.7322,0.731,0.7291,0.7251,0.7221,0.7183,0.7171,0.7158,0.7123,0.7124,0.7121,0.7123,0.7106,0.7095,0.709,0.7142,0.7142,0.7142,0.7142,0,0,0.7481,0.7434,0.7428,0.7411,0.7374,0.7352,0.7323,0.7288,0.7271,0.7242,0.7216,0.7171,0.7167,0.7145,0.7129,0.7109,0.7086,0.7107,0.7106,0.7104,0.7042,0.7045,0.704,0.7079,0.7078,0.7077,0.7045,0,0.7457,0.7408,0.739,0.7349,0.7323,0.7308,0.7282,0.7255,0.7236,0.7209,0.7186,0.7154,0.7153,0.7139,0.7119,0.7093,0.7073,0.7095,0.7051,0.705,0.706,0.7034,0.7037,0.7008,0.704,0.704,0.7039,0,0.7423,0.7396,0.7353,0.7319,0.7307,0.7285,0.7251,0.7226,0.7194,0.7181,0.7156,0.7141,0.7107,0.7112,0.7063,0.7079,0.7059,0.7044,0.7042,0.7037,0.7043,0.7027,0.6999,0.6994,0.7032,0.7033,0.7033,0,0.7417,0.737,0.7338,0.7323,0.7282,0.7267,0.7248,0.7217,0.7197,0.7166,0.7152,0.7117,0.7097,0.7068,0.7043,0.705,0.6996,0.7,0.6982,0.6983,0.6971,0.6972,0.6939,0.696,0.696,0.696,0.696,0,0.7391,0.7365,0.7334,0.7314,0.7284,0.7262,0.7231,0.7211,0.7183,0.7157,0.7141,0.7116,0.7085,0.7055,0.7035,0.6996,0.6987,0.6974,0.6969,0.6975,0.6977,0.6962,0.6963,0.6959,0.6959,0.696,0.696,0,0.738,0.7358,0.7322,0.7287,0.7277,0.7256,0.7224,0.7202,0.7182,0.7149,0.714,0.7107,0.7071,0.7044,0.6996,0.6982,0.6941,0.6936,0.6953,0.695,0.6934,0.6936,0.6889,0.6881,0.6909,0.6909,0.6909,0,0.7365,0.7345,0.7308,0.729,0.7273,0.7245,0.7224,0.7201,0.718,0.7142,0.7124,0.7087,0.7057,0.6999,0.6969,0.6932,0.6925,0.6911,0.6919,0.6926,0.6923,0.6925,0.6922,0.691,0.691,0.691,0.691,0,0.7341,0.7331,0.7304,0.7273,0.725,0.7224,0.7197,0.7182,0.7154,0.713,0.7095,0.7071,0.7023,0.6986,0.6946,0.6923,0.691,0.6908,0.6901,0.6907,0.6918,0.6911,0.6949,0.6908,0.6909,0.6909,0.6909,0.6909,0.7326,0.7307,0.7278,0.7248,0.7226,0.7201,0.7179,0.7156,0.7127,0.7089,0.7075,0.7038,0.7004,0.6949,0.6926,0.6894,0.6894,0.6885,0.6883,0.6881,0.6881,0.6924,0.6887,0.6887,0.6887,0.6887,0.6887,0,0.7301,0.7281,0.7254,0.7218,0.7193,0.7186,0.7155,0.7135,0.7103,0.7074,0.7044,0.7002,0.6965,0.6933,0.6894,0.6875,0.6867,0.6865,0.6866,0.686,0.6884,0.6893,0.6871,0.6871,0.6871,0.6871,0.6871,0.6871,0.7284,0.7252,0.7238,0.7193,0.7172,0.7138,0.7121,0.7096,0.7073,0.7027,0.6998,0.6978,0.6946,0.6905,0.687,0.6861,0.6846,0.6845,0.6834,0.6857,0.6859,0.6861,0.6869,0.6842,0.6842,0.6813,0.6813,0.6813]}]]